Regional Weather Roundup
Issued by NWS

Home | Current Version | Previous Version | Graphics & Text | Print | Product List | Glossary On
Versions: 1 2 3 4 5 6 7 8 9 10 11 12 13 14 15 16 17 18 19 20 21 22 23 24 25 26 27 28 29 30 31 32 33 34 35 36 37 38 39 40 41 42 43 44 45 46 47 48 49 50
000
ASUS43 KIND 092059
RWRIN

WEATHER ROUNDUP FOR INDIANA
NATIONAL WEATHER SERVICE INDIANAPOLIS IN
500 PM EDT WED JUL 09 2014

NOTE: "FAIR" INDICATES FEW OR NO CLOUDS BELOW 12,000 FEET WITH NO
SIGNIFICANT WEATHER AND/OR OBSTRUCTIONS TO VISIBILITY.

* - STATION DOES NOT REPORT WEATHER SUCH AS PRECIPITATION OR FOG.

+ - STATION NOT QUALITY CONTROLLED BY THE NATIONAL WEATHER SERVICE.
    USE DATA WITH CAUTION...ESPECIALLY DEWPOINT AND RELATIVE
    HUMIDITY OBSERVATIONS.

INZ001>003-010>013-019-020-092200-
NORTHWEST INDIANA

CITY           SKY/WX    TMP DP  RH WIND       PRES   REMARKS
GARY /AIRPORT/ MOSUNNY   75  57  53 NE9       29.96S
MONTICELLO +   MOSUNNY   78  58  48 W7        29.95S
VALPARAISO     CLOUDY    75  58  55 CALM      29.96S

$$

LMZ046-743>745-092200-
SOUTHERN LAKE MICHIGAN

STATION/POSITION TIME  TEMP WIND        PRES
                       AIR  DIR/SP/G
                 (UTC) (F)  (DEG/KT/KT) (MB)
MICHIGAN CITY    2000   67   20/  8/ 10   N/A

$$

INZ004-005-014>016-021>024-092200-
NORTH CENTRAL INDIANA

CITY           SKY/WX    TMP DP  RH WIND       PRES   REMARKS
GOSHEN         SUNNY     76  54  46 NW12      29.96S
SOUTH BEND     MOSUNNY   76  56  49 NW14      29.97S
WARSAW +       SUNNY     77  55  47 N6G18     29.96S

$$

INZ006>009-017-018-025>027-092200-
NORTHEAST INDIANA

CITY           SKY/WX    TMP DP  RH WIND       PRES   REMARKS
ANGOLA *+      SUNNY     77  57  50 NW10      29.95S
FORT WAYNE     MOSUNNY   78  58  49 NW9       29.95R

$$

INZ028-029-035-036-043>045-051>053-092200-
WEST CENTRAL INDIANA

CITY           SKY/WX    TMP DP  RH WIND       PRES   REMARKS
GREENCASTLE +  MOSUNNY   79  59  50 NW7       29.98S
LAFAYETTE      MOSUNNY   77  57  50 NW9       29.96S
TERRE HAUTE    MOSUNNY   79  60  52 NW10G18   29.97S

$$

INZ030>032-037>040-046>048-054>057-064-065-092200-
CENTRAL INDIANA

CITY           SKY/WX    TMP DP  RH WIND       PRES   REMARKS
COLUMBUS       CLOUDY    77  61  57 W9        29.97S
INDIANAPOLIS   MOSUNNY   80  58  46 NW14      29.96S
-EAGLE CREEK   MOSUNNY   80  57  45 NW14      29.96S
KOKOMO *+      SUNNY     81  55  41 W14       29.96S
MT COMFORT *+  SUNNY     79  59  50 NW10      29.97R
SHELBYVILLE    PTSUNNY   80  61  52 W8        29.95F

$$

INZ033-034-041-042-049-050-058-059-092200-
EAST CENTRAL INDIANA

CITY           SKY/WX    TMP DP  RH WIND       PRES   REMARKS
MUNCIE         MOSUNNY   79  58  48 NW13      29.96R

$$

INZ060-061-067>069-081>083-085>088-092200-
SOUTHWEST INDIANA

CITY           SKY/WX    TMP DP  RH WIND       PRES   REMARKS
EVANSVILLE     MOSUNNY   85  58  39 W9G17     29.98S
HUNTINGBURG *+ MOSUNNY   84  61  45 W8        29.98S

$$

INZ062-063-066-070>080-084-089>092-092200-
SOUTH CENTRAL AND SOUTHEAST INDIANA

CITY           SKY/WX    TMP DP  RH WIND       PRES   REMARKS
BLOOMINGTON    CLOUDY    78  63  59 NW5       29.97S
SEYMOUR +      CLOUDY    77  43  29 W7        29.96F

$$




USA.gov is the U.S. government's official web portal to all federal, state and local government web resources and services.